Victoria, TX

5:10 AM CDT on October 15, 2019 (GMT -0500)
Victoria Regional

Weather History for KVCT - August, 2019

Change the Weather History Date:

Friday, August 2, 2019

  Actual Average Record
Temperature  
Mean Temperature 87 °F 85 °F  
Max Temperature 100 °F 95 °F 103 °F (1998)
Min Temperature 73 °F 74 °F 70 °F (1994)
Degree Days  
Heating Degree Days 0 0  
Month to date heating degree days 0 0  
Since 1 June heating degree days 0 0  
Since 1 July heating degree days 0 0  
Cooling Degree Days 22 20  
Month to date cooling degree days 44 40  
Year to date cooling degree days 1997 1793  
Since 1 June cooling degree days 1229 1134  
Growing Degree Days 36 (Base 50)    
Moisture  
Dew Point 71 °F    
Average Humidity 62    
Maximum Humidity 93    
Minimum Humidity 31    
Precipitation  
Precipitation 0.00 in 0.09 in 1.23 in (1947)
Month to date precipitation 0.00 0.17  
Year to date precipitation 14.64 24.19  
Snow  
Snow 0.00 in 0.00 in 0.00 in (2002)
Month to date snowfall 0.0 0.0  
Since 1 June snowfall 0.0 0.0  
Since 1 July snowfall 0.0 0.0  
Snow Depth 0.00 in    
Sea Level Pressure  
Sea Level Pressure 29.96 in    
Wind  
Wind Speed 6 mph (SE)    
Max Wind Speed 20 mph    
Max Gust Speed 24 mph    
Visibility 10 miles    
Events      
T = Trace of Precipitation, MM = Missing Value Source: NWS Daily Summary

Daily Weather History Graph

Daily Weather History Graph

Search for Another Location

Airport or City:

Astronomy

Aug. 02, 2019 Rise Set
Actual Time 6:49 AM CDT 8:18 PM CDT
Civil Twilight 6:23 AM CDT 8:43 PM CDT
Nautical Twilight 5:53 AM CDT 9:14 PM CDT
Astronomical Twilight 5:21 AM CDT 9:46 PM CDT
Moon 8:25 AM CDT (8/2) 9:55 PM CDT (8/2)
Length of Visible Light 14h 20m
Length of Day
13h 29m
Waxing Crescent, 4% of the Moon is Illuminated
Aug 2
Waxing Crescent
Aug 7
First Quarter
Aug 15
Full
Aug 23
Last Quarter
Aug 30
New

Hourly Weather History & Observations

Time (CDT) Temp. Heat Index Dew Point Humidity Pressure Visibility Wind Dir Wind Speed Gust Speed Precip Events Conditions
12:51 AM 78.1 °F - 73.0 °F 84% 29.99 in 10.0 mi SSE 5.8 mph - N/A   Clear
1:51 AM 78.1 °F - 73.0 °F 84% 29.99 in 10.0 mi Calm Calm - N/A   Clear
2:51 AM 75.0 °F - 72.0 °F 90% 29.98 in 10.0 mi Calm Calm - N/A   Clear
3:51 AM 75.0 °F - 71.1 °F 87% 29.98 in 10.0 mi Calm Calm - N/A   Clear
4:51 AM 73.9 °F - 71.1 °F 91% 29.97 in 10.0 mi East 3.5 mph - N/A   Clear
5:51 AM 73.0 °F - 71.1 °F 93% 29.98 in 10.0 mi ENE 3.5 mph - N/A   Clear
6:51 AM 73.0 °F - 70.0 °F 90% 29.99 in 10.0 mi NE 5.8 mph - N/A   Clear
6:55 AM 73.0 °F - 70.0 °F 90% 30.00 in 10.0 mi NE 5.8 mph - N/A   Partly Cloudy
7:51 AM 77.0 °F - 73.9 °F 90% 30.00 in 10.0 mi Calm Calm - N/A   Partly Cloudy
8:51 AM 82.0 °F 87.9 °F 73.9 °F 76% 30.00 in 10.0 mi Calm Calm - N/A   Clear
9:51 AM 87.1 °F 93.6 °F 72.0 °F 61% 30.01 in 10.0 mi Variable 3.5 mph - N/A   Scattered Clouds
10:03 AM 86.0 °F 92.2 °F 72.0 °F 63% 30.01 in 10.0 mi Calm Calm - N/A   Mostly Cloudy
10:14 AM 87.1 °F 93.6 °F 72.0 °F 61% 30.01 in 10.0 mi Calm Calm - N/A   Scattered Clouds
10:51 AM 89.1 °F 96.0 °F 72.0 °F 57% 30.00 in 10.0 mi Variable 4.6 mph - N/A   Mostly Cloudy
11:51 AM 93.9 °F 99.1 °F 69.1 °F 44% 29.99 in 10.0 mi Variable 3.5 mph - N/A   Scattered Clouds
12:51 PM 93.9 °F 99.1 °F 69.1 °F 44% 29.97 in 10.0 mi East 9.2 mph - N/A   Partly Cloudy
1:51 PM 98.1 °F 103.0 °F 68.0 °F 37% 29.95 in 10.0 mi East 8.1 mph - N/A   Scattered Clouds
2:51 PM 97.0 °F 99.9 °F 64.9 °F 35% 29.93 in 10.0 mi Variable 3.5 mph - N/A   Scattered Clouds
3:51 PM 97.0 °F 100.4 °F 66.0 °F 36% 29.91 in 10.0 mi East 5.8 mph - N/A   Scattered Clouds
4:51 PM 100.0 °F 103.6 °F 64.9 °F 32% 29.89 in 10.0 mi East 9.2 mph - N/A   Mostly Cloudy
5:51 PM 93.0 °F 101.9 °F 73.0 °F 52% 29.90 in 10.0 mi South 16.1 mph - N/A   Scattered Clouds
5:59 PM 93.0 °F 100.7 °F 72.0 °F 50% 29.90 in 10.0 mi SSE 12.7 mph - N/A   Scattered Clouds
6:51 PM 93.0 °F 101.9 °F 73.0 °F 52% 29.89 in 10.0 mi South 15.0 mph - N/A   Scattered Clouds
7:51 PM 89.1 °F 96.0 °F 72.0 °F 57% 29.90 in 10.0 mi SSE 13.8 mph - N/A   Partly Cloudy
8:51 PM 84.9 °F 90.7 °F 72.0 °F 65% 29.91 in 10.0 mi South 8.1 mph - N/A   Clear
9:51 PM 84.0 °F 91.2 °F 73.9 °F 72% 29.92 in 10.0 mi South 6.9 mph - N/A   Scattered Clouds
10:51 PM 81.0 °F 86.2 °F 73.9 °F 79% 29.94 in 10.0 mi South 4.6 mph - N/A   Clear
11:51 PM 80.1 °F 84.2 °F 73.0 °F 79% 29.94 in 10.0 mi South 3.5 mph - N/A   Clear